Temp
-13 -13 -12 -12 -12 -12 -12 -12 -12 -12 -12 -12 -12 -12 -12 -12 -12 -12 -12 -12 -12 -12 -12 -12 -12 -12 -12 -12 -12 -12 -12 -13 -13 -13 -12 -12 -12 -12 -12 -12 -12 -12 -12 -12 -12 -12 -12 -12 -12 -12 -12 -12
-13 -13 -13 -13 -13 -13 -13 -13 -13 -13 -12 -12 -12 -12 -12 -12 -12 -12 -12 -12 -12 -12 -12 -12 -12 -12 -12 -12 -12 -13 -13 -13 -13 -13 -13 -13 -13 -12 -12 -12 -12 -12 -12 -12 -12 -12 -12 -12 -12 -12 -12 -12
-13 -13 -13 -13 -13 -13 -13 -13 -13 -13 -13 -13 -13 -13 -13 -13 -12 -12 -12 -12 -12 -12 -12 -12 -12 -12 -13 -13 -13 -13 -13 -13 -13 -13 -13 -13 -13 -13 -13 -13 -13 -12 -12 -12 -12 -12 -12 -12 -12 -12 -12 -12
-13 -13 -13 -13 -13 -13 -13 -13 -13 -13 -13 -13 -13 -13 -13 -13 -13 -13 -13 -13 -13 -13 -13 -13 -13 -13 -13 -13 -13 -13 -13 -13 -13 -13 -13 -13 -13 -13 -13 -13 -13 -13 -12 -12 -12 -12 -12 -12 -12 -12 -12 -12
-13 -13 -13 -13 -13 -13 -13 -13 -13 -13 -13 -13 -13 -13 -13 -13 -13 -13 -13 -13 -13 -13 -13 -13 -13 -13 -13 -13 -13 -13 -13 -13 -13 -13 -13 -13 -13 -13 -13 -13 -13 -13 -13 -12 -12 -12 -12 -12 -12 -12 -12 -12
-14 -13 -13 -14 -14 -13 -13 -13 -13 -13 -13 -13 -13 -13 -13 -13 -13 -13 -13 -13 -13 -13 -13 -13 -13 -13 -13 -13 -13 -13 -13 -13 -13 -13 -13 -13 -13 -13 -13 -13 -13 -13 -13 -13 -12 -12 -12 -12 -12 -12 -12 -12
-13 -14 -13 -14 -14 -13 -13 -13 -13 -13 -13 -13 -13 -13 -13 -13 -13 -13 -13 -13 -13 -13 -13 -14 -14 -14 -13 -13 -14 -14 -13 -13 -13 -13 -13 -13 -13 -13 -13 -13 -13 -13 -13 -13 -13 -13 -13 -12 -12 -12 -12 -12
-13 -13 -13 -14 -14 -14 -14 -14 -14 -14 -13 -13 -13 -13 -13 -13 -14 -14 -14 -14 -14 -14 -14 -14 -14 -14 -14 -14 -14 -14 -14 -14 -13 -13 -13 -13 -13 -13 -13 -13 -13 -13 -13 -13 -13 -13 -13 -13 -13 -13 -13 -13
-14 -14 -13 -13 -14 -14 -14 -14 -14 -14 -14 -14 -14 -14 -14 -14 -14 -14 -14 -14 -14 -14 -14 -14 -14 -14 -14 -14 -14 -14 -14 -14 -14 -14 -14 -13 -13 -13 -13 -13 -13 -13 -13 -13 -13 -13 -13 -13 -13 -13 -13 -13
-14 -14 -14 -14 -14 -14 -14 -14 -14 -14 -14 -14 -14 -14 -14 -14 -14 -14 -14 -14 -14 -14 -14 -14 -14 -14 -14 -14 -14 -14 -14 -14 -14 -14 -14 -14 -14 -14 -13 -13 -13 -13 -13 -13 -13 -13 -13 -13 -13 -13 -13 -13
-15 -15 -14 -14 -14 -14 -14 -14 -14 -14 -14 -14 -14 -14 -14 -14 -15 -15 -14 -14 -14 -14 -14 -14 -14 -14 -14 -14 -14 -14 -14 -14 -14 -14 -14 -14 -14 -14 -14 -14 -14 -14 -14 -14 -14 -13 -13 -13 -13 -13 -13 -13
-15 -15 -15 -14 -14 -14 -14 -14 -14 -14 -14 -14 -14 -14 -14 -14 -15 -15 -14 -14 -14 -14 -14 -14 -14 -14 -14 -14 -14 -14 -14 -14 -14 -14 -14 -14 -14 -14 -14 -14 -14 -14 -14 -14 -14 -14 -14 -14 -14 -13 -13 -13
-15 -15 -15 -15 -15 -15 -15 -14 -14 -14 -14 -14 -15 -15 -15 -15 -15 -15 -15 -15 -15 -15 -15 -15 -15 -15 -15 -15 -15 -15 -15 -15 -15 -15 -15 -15 -15 -15 -15 -14 -14 -14 -14 -14 -14 -14 -14 -14 -14 -14 -14 -14
-15 -15 -15 -15 -15 -15 -15 -15 -15 -15 -15 -15 -15 -15 -15 -15 -15 -15 -15 -15 -15 -15 -15 -15 -15 -15 -15 -15 -15 -15 -15 -15 -15 -15 -15 -15 -15 -15 -15 -15 -15 -15 -15 -15 -14 -14 -14 -14 -14 -14 -14 -14
-15 -15 -15 -15 -15 -15 -15 -15 -15 -15 -15 -15 -15 -15 -15 -15 -15 -15 -15 -15 -16 -16 -16 -16 -16 -16 -16 -16 -16 -16 -16 -16 -16 -16 -16 -16 -15 -15 -15 -15 -15 -15 -15 -15 -15 -15 -15 -15 -15 -14 -14 -14
-16 -16 -16 -16 -16 -16 -16 -16 -16 -15 -15 -16 -16 -16 -16 -16 -16 -16 -16 -16 -16 -16 -16 -16 -16 -16 -16 -16 -16 -16 -16 -16 -16 -16 -16 -16 -16 -16 -16 -16 -15 -15 -15 -15 -15 -15 -15 -15 -15 -15 -15 -15
-17 -17 -17 -17 -16 -16 -16 -16 -16 -16 -16 -16 -16 -16 -16 -16 -16 -16 -16 -16 -16 -17 -17 -17 -17 -17 -17 -16 -16 -16 -16 -16 -16 -16 -16 -16 -16 -16 -16 -16 -16 -16 -16 -15 -15 -15 -15 -15 -15 -15 -15 -15
-17 -17 -17 -17 -17 -17 -17 -17 -17 -17 -17 -17 -17 -17 -17 -17 -17 -17 -17 -17 -17 -17 -17 -17 -17 -17 -17 -17 -17 -17 -17 -17 -17 -16 -17 -16 -16 -16 -16 -16 -16 -16 -16 -16 -16 -16 -15 -15 -15 -15 -15 -15
-18 -18 -18 -18 -18 -17 -17 -17 -17 -17 -17 -17 -17 -17 -17 -17 -17 -17 -17 -17 -17 -17 -17 -17 -17 -17 -17 -17 -17 -17 -17 -17 -17 -17 -17 -17 -17 -17 -17 -16 -16 -16 -16 -16 -16 -16 -16 -16 -16 -16 -16 -16
-18 -18 -18 -18 -18 -18 -18 -18 -17 -17 -17 -17 -17 -17 -18 -18 -18 -18 -18 -17 -17 -17 -17 -17 -17 -17 -17 -17 -17 -17 -17 -17 -17 -17 -17 -17 -17 -17 -17 -17 -17 -16 -16 -16 -16 -16 -16 -16 -16 -16 -16 -16
-18 -18 -18 -18 -18 -18 -18 -18 -18 -18 -18 -18 -18 -18 -18 -18 -18 -18 -18 -18 -18 -18 -18 -18 -18 -18 -18 -18 -18 -18 -18 -18 -18 -18 -17 -17 -17 -17 -17 -17 -17 -17 -17 -17 -17 -17 -17 -17 -17 -17 -17 -17
-18 -18 -18 -18 -18 -18 -18 -18 -18 -18 -18 -18 -18 -18 -18 -18 -18 -18 -18 -18 -18 -18 -18 -18 -18 -18 -18 -18 -18 -18 -18 -18 -18 -18 -18 -18 -18 -18 -17 -17 -17 -17 -17 -17 -17 -18 -18 -18 -18 -18 -18 -18
-18 -18 -18 -18 -18 -18 -18 -18 -19 -19 -18 -18 -18 -18 -18 -18 -18 -18 -18 -18 -18 -18 -18 -18 -18 -18 -18 -18 -18 -18 -18 -18 -18 -18 -18 -18 -18 -18 -18 -18 -18 -18 -18 -18 -18 -18 -18 -18 -18 -18 -18 -18
-18 -18 -18 -18 -19 -18 -19 -19 -19 -19 -19 -19 -19 -19 -19 -18 -18 -18 -18 -18 -18 -18 -18 -18 -18 -18 -18 -18 -18 -18 -18 -18 -18 -18 -18 -18 -18 -18 -18 -18 -18 -18 -18 -19 -19 -19 -19 -19 -19 -18 -18 -18
-18 -18 -18 -19 -19 -19 -19 -19 -19 -19 -19 -19 -19 -19 -19 -19 -18 -18 -18 -19 -19 -19 -19 -19 -19 -19 -19 -19 -19 -19 -19 -19 -19 -19 -19 -19 -19 -19 -19 -19 -19 -19 -19 -19 -19 -19 -19 -19 -19 -19 -19 -19
-18 -18 -19 -19 -19 -19 -19 -19 -19 -19 -19 -19 -19 -19 -19 -19 -19 -19 -19 -19 -19 -19 -19 -19 -19 -19 -19 -19 -19 -19 -19 -19 -19 -19 -19 -19 -19 -20 -20 -19 -19 -19 -19 -19 -19 -19 -19 -19 -19 -19 -19 -19
-18 -18 -19 -19 -19 -19 -19 -19 -19 -19 -19 -19 -19 -19 -19 -19 -19 -19 -20 -20 -20 -20 -19 -19 -19 -19 -19 -19 -19 -20 -20 -20 -20 -20 -20 -20 -20 -20 -20 -20 -20 -20 -19 -20 -20 -20 -20 -20 -20 -20 -20 -20
-18 -18 -19 -19 -18 -19 -18 -18 -19 -19 -19 -19 -19 -20 -20 -20 -20 -20 -20 -20 -20 -20 -20 -20 -20 -20 -20 -20 -20 -20 -20 -20 -20 -20 -20 -20 -20 -20 -20 -20 -20 -20 -20 -20 -20 -20 -20 -20 -20 -20 -20 -20
-19 -19 -19 -19 -19 -19 -19 -19 -19 -19 -19 -20 -20 -20 -20 -20 -20 -20 -20 -20 -20 -20 -20 -20 -20 -20 -20 -20 -20 -20 -20 -20 -20 -20 -20 -20 -20 -20 -20 -20 -20 -20 -20 -20 -20 -20 -20 -20 -20 -20 -20 -21
-19 -19 -19 -19 -19 -19 -19 -19 -19 -19 -20 -20 -20 -20 -20 -20 -20 -20 -20 -20 -20 -21 -20 -20 -20 -20 -20 -20 -20 -20 -20 -20 -20 -20 -20 -20 -20 -20 -20 -20 -20 -20 -20 -20 -21 -21 -21 -21 -21 -21 -21 -21
-20 -19 -19 -19 -19 -19 -19 -19 -19 -19 -19 -19 -20 -20 -20 -20 -20 -20 -20 -20 -20 -20 -20 -20 -20 -20 -20 -20 -20 -20 -20 -20 -20 -20 -20 -20 -21 -21 -21 -21 -20 -20 -21 -21 -21 -21 -21 -21 -21 -21 -21 -21
Height
5759 5759 5760 5761 5761 5761 5762 5762 5763 5763 5764 5765 5767 5768 5769 5770 5771 5772 5773 5774 5776 5777 5779 5781 5782 5784 5785 5787 5788 5789 5790 5791 5792 5793 5794 5795 5796 5797 5798 5799 5800 5802 5803 5804 5805 5806 5807 5808 5808 5809 5810 5812
5757 5757 5758 5759 5759 5759 5759 5760 5760 5761 5762 5763 5765 5766 5767 5768 5768 5769 5770 5771 5772 5774 5775 5777 5778 5780 5781 5782 5783 5784 5785 5786 5787 5789 5790 5791 5792 5793 5794 5795 5796 5797 5798 5800 5801 5802 5802 5803 5804 5805 5806 5807
5754 5755 5755 5756 5756 5757 5757 5758 5758 5759 5760 5761 5762 5763 5764 5765 5765 5766 5767 5768 5769 5771 5772 5773 5774 5776 5777 5778 5779 5780 5781 5782 5783 5784 5785 5786 5788 5789 5790 5791 5792 5793 5794 5795 5796 5797 5798 5799 5800 5801 5802 5803
5752 5752 5753 5753 5753 5754 5754 5755 5755 5756 5757 5758 5759 5760 5761 5761 5762 5763 5764 5765 5767 5768 5769 5770 5771 5772 5773 5774 5775 5776 5777 5778 5779 5780 5781 5782 5783 5784 5785 5786 5787 5789 5790 5791 5792 5793 5794 5795 5796 5797 5797 5798
5748 5749 5750 5750 5751 5751 5752 5752 5752 5753 5754 5755 5755 5756 5757 5758 5759 5760 5760 5762 5763 5764 5766 5766 5767 5768 5769 5770 5771 5772 5773 5774 5775 5776 5777 5778 5779 5780 5781 5782 5783 5784 5785 5786 5787 5788 5789 5790 5791 5792 5793 5794
5745 5745 5746 5747 5747 5748 5748 5748 5749 5750 5751 5751 5752 5753 5754 5755 5755 5756 5757 5758 5759 5760 5761 5762 5763 5764 5765 5766 5767 5767 5768 5769 5770 5771 5772 5773 5775 5776 5777 5778 5779 5779 5781 5781 5782 5783 5784 5785 5786 5787 5787 5788
5742 5742 5742 5743 5743 5744 5745 5745 5745 5746 5747 5748 5748 5749 5750 5751 5752 5752 5753 5754 5755 5756 5757 5758 5759 5760 5761 5762 5762 5763 5764 5765 5766 5767 5768 5769 5770 5771 5772 5773 5774 5775 5776 5777 5778 5778 5779 5780 5781 5782 5782 5783
5737 5738 5739 5739 5740 5740 5741 5741 5742 5743 5743 5744 5744 5745 5746 5747 5747 5748 5749 5749 5750 5751 5752 5753 5754 5755 5756 5757 5758 5759 5759 5760 5761 5762 5763 5764 5765 5766 5767 5768 5769 5770 5771 5772 5773 5774 5774 5775 5776 5777 5777 5778
5732 5734 5735 5736 5736 5736 5737 5737 5738 5738 5739 5740 5740 5741 5741 5742 5743 5744 5744 5745 5746 5747 5748 5749 5749 5751 5751 5752 5753 5754 5755 5756 5757 5758 5759 5759 5760 5761 5762 5763 5764 5765 5766 5767 5768 5769 5769 5770 5771 5772 5773 5773
5728 5729 5730 5731 5731 5732 5732 5732 5733 5733 5734 5735 5736 5736 5737 5738 5739 5740 5740 5741 5742 5742 5743 5744 5745 5746 5746 5747 5748 5750 5751 5751 5752 5753 5754 5755 5756 5757 5757 5758 5759 5760 5761 5762 5763 5763 5764 5765 5766 5767 5768 5768
5724 5724 5725 5726 5727 5727 5727 5727 5727 5728 5729 5730 5731 5732 5733 5734 5735 5736 5737 5737 5737 5738 5738 5739 5739 5740 5741 5742 5743 5745 5746 5747 5747 5748 5749 5750 5750 5751 5752 5753 5754 5755 5756 5757 5757 5758 5759 5760 5760 5761 5762 5763
5721 5720 5720 5721 5721 5722 5722 5722 5723 5723 5724 5725 5726 5727 5728 5729 5730 5731 5732 5732 5732 5732 5733 5733 5734 5735 5736 5737 5738 5739 5740 5741 5742 5743 5744 5744 5745 5746 5747 5748 5749 5749 5750 5751 5752 5753 5753 5754 5755 5756 5757 5757
5716 5715 5715 5715 5716 5716 5716 5717 5718 5719 5720 5720 5721 5722 5723 5724 5725 5726 5727 5727 5727 5728 5728 5728 5729 5730 5731 5732 5733 5734 5735 5736 5737 5737 5738 5739 5740 5740 5741 5742 5743 5744 5745 5745 5746 5747 5748 5748 5749 5750 5751 5751
5711 5711 5711 5710 5710 5710 5710 5711 5712 5714 5715 5716 5716 5717 5718 5719 5720 5721 5722 5722 5723 5723 5723 5724 5724 5725 5726 5726 5727 5728 5729 5730 5731 5732 5732 5733 5734 5735 5735 5736 5737 5738 5739 5739 5740 5741 5742 5742 5743 5744 5744 5745
5706 5706 5706 5706 5706 5705 5705 5706 5707 5708 5709 5710 5711 5712 5712 5713 5714 5715 5716 5717 5718 5718 5719 5719 5720 5720 5720 5721 5722 5723 5723 5724 5725 5726 5727 5727 5728 5729 5730 5730 5731 5732 5732 5733 5734 5735 5735 5736 5737 5737 5738 5739
5701 5701 5701 5701 5701 5702 5702 5702 5703 5703 5704 5705 5706 5706 5707 5707 5708 5709 5710 5711 5712 5713 5713 5714 5714 5715 5715 5716 5717 5717 5718 5719 5719 5720 5721 5721 5722 5723 5724 5724 5725 5726 5726 5727 5728 5728 5729 5730 5730 5731 5732 5732
5696 5696 5696 5696 5697 5697 5697 5698 5698 5699 5699 5700 5700 5701 5702 5702 5702 5703 5704 5705 5706 5707 5707 5708 5708 5709 5709 5710 5711 5711 5712 5713 5713 5714 5714 5715 5716 5717 5717 5718 5719 5719 5720 5721 5722 5722 5723 5723 5724 5724 5725 5726
5692 5692 5692 5692 5692 5692 5692 5693 5693 5694 5694 5694 5695 5696 5696 5697 5697 5697 5698 5699 5699 5700 5701 5702 5702 5702 5703 5704 5705 5705 5706 5706 5707 5708 5708 5709 5710 5710 5711 5712 5713 5713 5714 5715 5715 5716 5716 5717 5717 5718 5718 5719
5687 5687 5687 5687 5688 5688 5688 5688 5688 5689 5689 5689 5690 5690 5691 5691 5691 5691 5691 5692 5693 5694 5695 5695 5695 5696 5696 5697 5698 5699 5699 5700 5701 5701 5702 5703 5704 5704 5705 5706 5706 5707 5708 5708 5709 5709 5710 5710 5711 5711 5712 5712
5681 5682 5682 5682 5682 5683 5683 5683 5683 5684 5684 5684 5684 5684 5685 5684 5684 5684 5685 5685 5686 5687 5688 5688 5688 5689 5689 5690 5691 5692 5693 5694 5694 5695 5696 5697 5697 5698 5699 5700 5700 5701 5701 5701 5702 5702 5703 5704 5704 5705 5705 5706
5675 5676 5676 5676 5676 5677 5677 5677 5678 5678 5678 5679 5679 5679 5679 5679 5678 5678 5678 5679 5679 5680 5680 5681 5681 5682 5683 5684 5685 5685 5686 5687 5688 5689 5689 5690 5691 5692 5693 5693 5694 5694 5694 5695 5695 5696 5697 5697 5698 5698 5699 5700
5670 5670 5670 5670 5670 5670 5671 5671 5672 5672 5673 5673 5673 5673 5673 5673 5672 5672 5673 5673 5673 5673 5674 5674 5675 5676 5677 5678 5678 5679 5680 5681 5682 5682 5683 5684 5685 5686 5686 5687 5687 5688 5688 5689 5689 5690 5690 5691 5692 5692 5693 5694
5664 5664 5664 5664 5664 5664 5665 5666 5666 5666 5666 5667 5667 5666 5666 5666 5666 5666 5666 5667 5667 5667 5668 5668 5669 5670 5671 5672 5673 5674 5675 5675 5676 5676 5677 5677 5678 5679 5680 5680 5681 5682 5682 5683 5683 5684 5684 5685 5686 5687 5688 5688
5658 5658 5658 5659 5658 5659 5659 5660 5659 5659 5659 5660 5660 5660 5660 5660 5661 5660 5660 5661 5661 5661 5662 5662 5663 5665 5666 5667 5668 5668 5669 5669 5669 5670 5670 5671 5672 5673 5673 5674 5675 5675 5675 5676 5677 5678 5679 5679 5681 5681 5682 5682
5653 5653 5653 5653 5653 5653 5653 5653 5653 5653 5654 5654 5654 5653 5653 5654 5654 5654 5654 5655 5655 5656 5656 5657 5658 5659 5660 5661 5662 5662 5662 5662 5663 5663 5664 5665 5666 5666 5667 5667 5668 5668 5669 5670 5671 5672 5672 5673 5674 5675 5675 5675
5648 5648 5647 5647 5647 5647 5647 5647 5646 5647 5648 5648 5647 5647 5647 5648 5648 5648 5649 5649 5650 5650 5651 5652 5652 5653 5653 5654 5655 5655 5655 5656 5656 5657 5658 5659 5659 5660 5660 5661 5661 5662 5663 5664 5664 5665 5666 5667 5668 5668 5669 5669
5643 5643 5642 5641 5641 5640 5640 5641 5641 5640 5641 5641 5641 5642 5642 5642 5643 5643 5644 5644 5644 5644 5644 5645 5645 5645 5646 5647 5648 5648 5649 5649 5650 5650 5651 5652 5652 5653 5653 5654 5655 5655 5656 5657 5658 5659 5660 5661 5661 5662 5662 5663
5639 5638 5636 5635 5635 5634 5634 5635 5635 5635 5635 5636 5636 5636 5636 5637 5637 5637 5637 5637 5637 5637 5637 5637 5638 5638 5639 5640 5641 5641 5641 5642 5643 5643 5644 5645 5645 5646 5647 5648 5648 5648 5650 5651 5652 5652 5653 5654 5654 5655 5656 5656
5634 5632 5631 5630 5629 5628 5629 5629 5629 5629 5629 5630 5630 5629 5629 5629 5629 5629 5629 5629 5629 5629 5629 5630 5630 5631 5632 5633 5633 5634 5635 5635 5636 5636 5637 5638 5639 5640 5640 5641 5641 5642 5643 5645 5645 5646 5647 5648 5648 5648 5649 5649
5628 5627 5626 5625 5624 5623 5623 5623 5623 5623 5622 5621 5621 5621 5620 5621 5621 5621 5621 5622 5622 5621 5622 5623 5623 5624 5625 5625 5626 5627 5628 5629 5629 5630 5630 5631 5632 5633 5633 5633 5635 5636 5637 5638 5638 5639 5640 5641 5641 5641 5642 5641
5621 5621 5620 5619 5618 5618 5617 5616 5617 5616 5614 5614 5614 5613 5613 5614 5614 5614 5614 5615 5615 5614 5615 5616 5616 5617 5618 5619 5619 5620 5621 5622 5623 5623 5623 5624 5625 5626 5626 5626 5628 5630 5629 5630 5632 5632 5633 5634 5634 5634 5635 5634
Wind_Speed
34 34 31 29 28 26 25 27 30 34 39 41 42 42 41 42 42 41 39 37 36 35 35 35 35 35 36 36 36 36 36 36 36 36 36 36 37 37 37 36 36 36 36 36 36 36 36 36 36 36 36 36
28 29 28 28 27 25 23 22 22 25 30 34 35 35 35 36 36 36 35 35 36 36 36 36 36 36 36 36 36 36 36 35 36 36 36 37 37 37 37 37 37 37 37 37 38 38 38 38 38 38 38 38
28 27 27 28 30 28 25 23 22 23 25 27 28 28 29 30 30 30 30 31 33 34 35 35 35 35 36 36 37 37 37 37 37 37 37 37 37 38 38 38 38 39 39 39 39 40 40 40 40 40 40 40
31 30 29 31 33 32 30 29 28 27 28 29 29 28 28 29 30 30 30 31 31 32 33 34 35 35 36 37 37 38 38 38 38 38 39 39 39 39 40 40 40 40 40 40 41 41 41 41 41 41 41 41
34 33 32 33 35 35 35 34 33 32 32 32 32 32 31 32 33 33 33 33 33 34 34 35 36 36 37 38 39 39 40 40 40 40 41 41 41 41 41 42 42 42 42 42 41 42 42 42 42 43 43 43
36 36 35 35 36 36 36 37 36 35 35 35 36 35 35 35 35 35 35 34 34 35 36 36 37 38 38 39 40 40 41 41 41 42 42 42 42 43 43 43 43 43 43 43 43 43 43 43 44 44 45 45
39 38 37 36 36 37 37 38 38 38 38 38 38 38 38 38 37 36 36 36 36 37 38 39 39 40 40 40 40 40 41 41 41 42 42 43 43 43 44 44 45 45 45 45 45 45 45 45 45 45 46 45
41 41 40 38 38 38 38 39 39 40 40 41 41 41 40 40 40 38 38 38 39 40 41 41 41 41 42 41 41 41 41 41 42 42 42 43 43 44 44 45 45 46 47 47 47 47 47 47 46 46 46 46
42 42 42 41 40 39 40 40 41 41 41 42 43 42 42 42 41 40 40 40 41 42 43 42 42 42 42 43 42 42 42 42 42 43 43 43 44 44 45 45 46 47 48 49 49 49 48 48 48 47 47 47
44 44 44 44 43 42 41 42 42 43 42 42 42 42 43 43 43 41 41 41 42 44 44 44 43 43 43 43 43 43 43 43 43 44 44 45 45 46 46 47 48 48 49 50 50 50 50 50 49 49 49 49
46 47 46 45 45 44 44 44 44 43 42 42 42 42 43 43 43 42 42 42 43 45 45 45 44 44 44 45 45 45 45 45 46 46 46 47 47 48 48 49 49 50 51 51 51 51 51 51 51 51 51 51
45 47 48 47 46 45 44 44 44 44 43 43 43 43 44 44 44 44 45 45 46 46 47 47 47 46 46 47 47 48 48 48 48 48 49 49 49 50 50 51 51 51 52 52 52 53 53 53 53 53 53 53
48 50 50 50 48 47 46 45 45 45 45 45 45 46 46 47 47 47 47 47 48 48 49 49 49 49 48 49 49 49 50 50 50 50 50 51 51 51 52 52 53 53 53 53 54 54 54 54 55 55 55 55
48 50 52 53 53 52 51 49 48 48 48 48 48 48 49 50 49 49 48 48 48 49 49 49 49 50 50 50 50 51 51 51 51 52 52 52 52 53 53 53 54 54 55 55 55 55 56 56 56 56 56 55
44 45 47 51 53 54 53 51 51 50 50 50 50 51 51 51 51 50 50 49 49 49 49 50 51 51 51 52 52 52 53 53 53 53 53 54 54 54 54 55 55 55 56 56 56 56 56 56 56 56 56 56
39 40 41 44 46 48 48 48 49 50 51 52 52 52 52 52 52 52 51 51 50 50 50 51 52 53 53 53 54 54 54 54 55 55 55 55 55 55 55 55 55 56 56 56 56 56 56 56 56 56 56 56
37 38 38 40 41 43 44 45 46 47 49 50 50 51 51 52 53 53 53 52 52 52 52 53 53 54 54 55 55 55 55 56 56 56 56 56 55 55 55 55 56 56 56 56 56 56 56 56 56 56 56 56
38 39 39 40 41 42 43 43 44 46 47 48 48 49 49 51 52 52 53 53 53 53 53 53 54 55 55 55 55 56 56 56 56 56 55 55 55 55 55 55 55 55 55 55 56 56 56 56 56 56 56 55
38 39 40 41 42 43 44 44 45 46 47 47 48 48 48 50 51 52 52 52 52 52 52 53 53 54 54 55 55 55 55 55 55 55 55 55 55 55 55 55 55 55 55 55 55 55 55 55 55 55 55 54
37 38 39 41 42 43 45 46 46 47 47 48 48 48 49 49 51 51 52 52 52 52 52 52 53 53 54 54 54 54 54 54 54 54 54 54 55 54 54 54 54 55 55 55 55 55 54 54 53 53 53 53
38 38 39 40 41 42 44 45 46 46 47 48 48 49 49 50 51 52 52 52 52 52 52 52 52 53 53 53 53 53 53 53 53 53 53 53 53 53 53 53 53 54 54 54 54 53 52 52 51 51 51 51
40 40 41 41 42 42 43 43 43 44 45 45 46 48 49 50 51 52 53 53 53 53 53 53 53 53 52 53 52 52 52 52 52 52 52 51 51 51 51 52 52 52 53 53 52 52 51 51 51 50 50 50
42 43 43 43 43 44 44 43 42 42 43 44 45 46 48 49 50 50 51 51 52 52 52 52 52 52 51 50 50 50 49 49 49 49 49 49 49 50 50 50 51 51 52 52 51 51 50 50 50 50 50 51
44 45 45 45 45 45 44 44 44 45 45 46 46 47 48 49 49 49 50 50 50 50 50 50 50 49 49 48 48 48 48 48 48 48 49 49 49 49 50 50 51 51 52 52 52 51 50 50 50 51 51 52
43 45 45 45 45 45 45 46 47 48 48 47 48 48 49 49 50 50 51 51 50 50 50 50 49 49 48 48 48 48 48 48 49 49 49 49 49 49 50 51 52 52 53 53 52 51 50 50 51 52 53 53
44 44 44 44 45 46 47 48 49 49 49 50 50 50 51 51 51 51 50 50 50 50 50 49 49 49 49 49 49 48 48 48 48 48 48 49 49 50 50 52 53 54 54 53 52 52 51 52 52 53 54 54
47 46 46 46 47 47 48 49 50 50 50 51 51 51 51 51 51 50 50 49 50 50 50 50 50 50 50 49 49 48 47 47 48 48 49 49 50 51 52 53 54 55 55 54 53 53 52 53 54 54 54 54
47 48 48 49 50 50 50 49 49 49 50 50 49 49 50 50 49 49 49 50 50 51 52 52 52 52 51 50 50 49 49 50 50 50 51 51 52 53 54 55 56 56 56 55 54 54 53 54 54 55 54 54
45 47 49 50 51 52 51 50 49 49 48 48 48 48 49 49 49 50 50 51 51 53 53 53 53 53 52 52 52 53 53 53 53 53 54 54 55 55 56 57 58 58 58 56 55 54 54 54 54 54 53 53
46 47 48 50 51 52 52 52 51 50 50 50 50 50 50 51 51 52 53 53 53 54 54 55 55 55 54 55 55 56 56 56 56 56 56 57 57 57 58 59 59 58 58 57 55 54 53 54 54 54 53 53
48 48 49 50 51 51 52 53 53 53 54 54 54 54 54 53 53 54 54 54 54 55 55 56 56 56 56 56 57 57 57 57 58 58 58 58 58 58 59 59 58 58 58 57 55 54 54 54 54 54 53 53
Wind_Direction
244 244 244 244 243 241 240 241 242 243 242 237 234 234 233 231 229 227 226 225 226 227 227 228 230 232 233 235 236 238 239 240 241 243 244 246 247 248 249 249 250 250 251 251 252 252 252 252 252 252 253 253
249 246 244 243 243 241 238 236 235 235 236 235 232 231 230 230 228 226 225 228 229 229 229 230 231 233 235 236 237 238 239 239 240 242 243 245 246 247 248 249 250 251 252 253 253 253 253 253 253 253 253 253
256 250 241 241 245 244 239 236 236 234 235 237 236 234 233 232 231 230 229 230 229 228 228 230 231 233 235 237 238 239 239 241 242 243 244 245 247 248 249 250 251 252 253 254 255 255 255 255 254 254 254 254
255 254 247 245 247 246 242 238 236 235 235 238 240 241 242 242 239 238 239 239 238 237 235 235 235 236 238 239 241 241 242 243 244 245 246 247 248 249 250 251 251 253 254 255 256 256 256 256 255 255 255 255
252 253 251 250 251 250 249 247 243 240 240 241 242 242 243 244 243 243 244 244 244 244 243 242 241 241 242 243 244 244 244 245 245 247 248 248 249 250 251 251 252 253 254 255 256 256 257 257 257 256 256 256
252 253 252 251 252 253 252 252 250 248 247 245 244 243 241 242 243 246 247 247 247 247 246 246 247 246 246 246 247 247 247 247 247 247 249 249 250 251 251 252 252 253 254 255 256 256 257 258 258 258 258 257
252 253 254 254 254 254 254 254 254 253 252 251 249 247 245 244 245 246 248 249 249 250 251 251 252 251 251 250 250 250 249 249 248 249 249 250 251 251 252 252 252 253 254 254 256 257 258 258 258 258 258 258
255 253 253 254 255 255 255 255 254 254 253 252 252 251 251 250 249 249 249 251 252 253 254 255 254 253 253 252 252 251 251 249 249 249 250 251 251 252 253 253 253 253 254 255 256 258 258 259 259 258 258 258
259 256 253 253 254 255 255 254 253 253 252 252 253 253 252 252 251 252 252 253 255 256 257 257 256 255 254 253 252 251 250 250 250 250 251 251 252 253 254 254 255 255 256 257 258 259 259 259 258 258 258 258
262 262 259 255 255 256 255 253 252 251 252 253 254 253 252 252 252 252 253 254 255 256 256 256 254 253 253 252 252 251 252 252 253 254 254 254 254 255 255 256 256 257 257 258 258 259 259 258 258 258 258 258
261 263 262 260 259 257 255 254 253 252 252 253 254 254 253 252 252 251 251 252 253 253 253 253 251 251 251 251 252 253 254 255 256 257 257 257 257 257 257 257 257 257 258 258 258 258 258 258 258 258 258 258
259 260 261 262 262 258 256 256 255 253 254 254 254 254 253 252 250 249 250 251 251 252 253 253 254 254 253 253 253 255 256 257 258 258 258 258 258 258 258 258 258 258 258 258 258 258 258 258 258 259 259 259
259 259 258 258 260 259 259 260 259 257 256 256 255 254 253 252 250 250 249 250 251 253 254 255 256 257 257 256 256 257 257 258 258 259 258 258 258 258 258 258 258 258 258 258 258 259 259 259 259 260 260 260
255 257 256 255 255 254 256 259 260 260 259 257 257 256 254 253 252 252 251 252 253 254 255 257 257 258 258 258 258 258 258 258 259 259 259 259 259 258 259 258 259 259 259 259 259 260 260 260 260 261 261 261
253 254 254 254 252 249 250 253 255 257 257 256 257 257 256 254 254 254 253 253 254 255 256 257 257 258 258 258 258 258 258 259 259 259 259 259 259 259 259 259 260 260 260 260 261 261 261 261 261 262 262 262
256 256 256 256 254 253 253 255 255 256 256 255 255 256 255 255 255 255 255 255 255 255 255 256 256 257 257 258 258 258 258 259 259 259 260 260 260 260 260 260 260 260 261 261 261 262 262 262 262 263 263 263
260 260 259 259 259 258 259 259 259 259 258 257 256 256 256 256 256 257 257 257 257 256 256 256 257 257 257 258 258 258 259 259 260 260 260 260 260 260 260 260 261 261 261 261 262 262 262 263 263 263 263 263
262 260 260 260 260 260 260 259 259 259 259 259 258 258 258 258 258 259 259 259 259 258 258 258 258 258 258 258 258 258 259 259 259 260 260 260 260 260 260 261 261 261 261 262 262 262 263 263 263 263 263 263
260 259 259 259 259 259 259 258 258 258 258 259 259 259 258 259 259 259 259 259 259 258 258 258 258 258 258 258 258 258 258 259 259 259 260 260 260 260 261 261 261 261 262 262 262 262 262 262 262 262 262 262
255 255 256 257 257 257 257 256 256 257 257 257 258 258 258 259 259 259 259 259 259 259 259 258 258 258 258 258 258 258 259 259 259 260 260 260 260 261 261 261 262 262 262 262 261 261 260 260 260 260 260 260
255 255 255 255 255 255 255 255 255 256 256 256 257 258 258 259 260 260 260 260 260 260 260 260 260 260 260 260 260 260 261 261 261 261 261 261 260 261 261 261 261 261 260 260 259 259 259 259 259 259 259 259
255 255 255 255 255 255 256 257 257 256 257 257 257 258 258 258 258 259 260 260 260 261 261 261 261 261 261 261 262 262 262 262 261 261 261 261 260 260 260 259 259 258 258 258 257 257 257 258 258 259 259 260
254 254 254 254 255 256 256 257 258 257 257 256 256 257 257 257 258 259 259 260 260 260 261 261 261 261 261 261 262 262 262 261 261 260 260 259 259 259 258 258 257 257 256 256 256 256 257 257 259 260 261 261
254 254 254 254 254 255 255 256 256 256 256 256 256 256 257 257 258 259 259 260 260 260 260 261 261 261 262 261 261 261 260 259 258 258 258 258 258 257 257 257 256 256 256 255 256 256 257 258 259 260 260 260
256 256 255 254 254 254 254 254 255 255 256 256 256 257 257 258 258 259 259 260 260 261 261 262 263 262 262 261 260 260 258 257 257 257 257 256 256 255 255 255 255 255 255 256 257 257 258 258 258 259 259 260
259 258 256 255 254 253 253 254 254 255 255 255 255 256 257 258 258 259 260 261 262 262 263 263 263 262 261 261 260 259 258 257 256 256 255 255 254 253 253 254 254 255 256 257 257 257 258 258 259 259 260 261
261 260 257 256 255 254 254 254 254 255 255 255 256 256 257 258 259 260 261 261 262 262 261 261 260 260 259 259 258 258 257 256 255 255 254 253 253 253 253 254 255 255 256 257 258 258 259 260 260 261 262 263
263 261 259 258 257 257 256 256 256 256 257 257 258 258 259 259 260 260 260 260 260 259 258 258 258 257 257 257 257 256 255 254 254 254 253 253 253 253 254 255 255 256 257 258 259 260 261 261 262 262 263 263
264 263 261 260 259 259 258 257 256 256 257 257 257 257 256 256 256 256 255 255 255 255 255 255 255 255 255 255 254 254 253 253 253 254 254 254 254 255 255 256 257 258 259 260 261 261 262 262 262 263 263 263
265 264 263 262 261 261 259 258 256 255 255 254 254 254 254 253 253 253 253 253 253 254 254 254 254 253 253 253 253 253 253 253 254 254 255 255 255 255 256 257 258 259 261 261 261 262 261 261 261 262 262 262
265 265 264 263 263 262 261 260 259 256 255 254 254 253 254 254 254 254 254 254 254 254 254 254 255 254 254 254 254 254 254 254 255 255 255 255 256 256 257 258 259 259 260 260 260 260 260 260 260 260 260 260